CZ-4C DEB

Last updated on Sat Jul 19 2025 00:02:09 GMT+0000 (Coordinated Universal Time)

1 64783U 25145C 25199.60518553 .00078399 00000+0 32837-1 0 9993 2 64783 10.9704 341.2858 0038573 346.9349 12.9879 14.23906663 1384

Satellite not in orbit